GSAT0217 (GALILEO 21) (43057 NORAD) Tracking and Keplerian Element Data

This shows tracking and keplerian element data for the satellite.

Feedback or suggestion? Click here.




ElementValue
Catalog43057
NameGSAT0217 (GALILEO 21)
Epoch Orbit618
Epoch Day344.72642962
Epoch Year2018
RAAN296.9883
Inclination56.7121
Eccentricity0.0004606
Argument of Perigee277.2364
Mean Anonmoly82.7002
Mean Motion1.70473655
Decay Rate-4.6E-07
L11 43057U 17079C 18344.72642962 -.00000046 00000-0 00000-0 0 9992
L22 43057 56.7121 296.9883 0004606 277.2364 82.7002 1.70473655 6187

Live tracking and technical data element details for GSAT0217 (GALILEO 21) (NORAD 43057). GSAT0217 (GALILEO 21) can be tracked NOW for your location showing map with azimuth and elevation plus other details from your city location.

Track the satellite on the map from your city or location and see movement details for azimuth, elevation, latitude, longitude, range, height, and movement on the map or in text.







IsCatalogInMostPopularTable: catalog: 43057, numindb: 165
Update: records affected: 1



GetName: 43057 GSAT0217 (GALILEO 21)

Hit Count: updated at: Sat, 15 Dec 2018 13:12:39 GMT